Location: Norton
(51.3000°N, 0.8167°E)
Time: 19:00:15
(UTC+00:00)

Daily predictions for brighter satellites

Satellite Brightness Start Highest point End
(mag) Time Altitude Azimuth Time Altitude Azimuth Time Altitude Azimuth
CZ-4 R/B 1.3 18:05:51 10° SSE 18:09:39 58° ENE 18:13:32 10° N
H-2A R/B 2.2 18:04:26 10° SSE 18:09:48 63° ENE 18:15:12 10° N
USA 305 3.1 18:05:36 10° W 18:09:53 74° NNW 18:14:10 10° ENE
Gbstr 26 Del rocket 3.2 18:08:21 10° WSW 18:12:36 77° SSE 18:17:52 10° ENE
IRS-1C Rocket 4.1 18:08:19 10° SSE 18:13:36 80° ENE 18:18:55 10° NNW
SL-4 R/B 1.6 18:11:19 10° W 18:14:56 83° N 18:18:24 10° E
Meteor 1-20 Rocket 4.2 18:10:36 10° S 18:15:56 58° E 18:21:21 10° NNE
Cosmos 1302 Rocket 4.0 18:10:55 10° SSW 18:16:04 70° ESE 18:21:17 10° NNE
CSL-04 DEB 4.3 18:13:58 10° NNE 18:17:55 70° ESE 18:21:55 10° S
USA 307 3.1 18:16:54 10° W 18:21:11 70° NNW 18:25:27 10° ENE
FALCON 9 DEB 3.2 18:19:09 10° WNW 18:22:36 82° SSW 18:26:01 10° ESE
ATLAS CENTAUR R/B 2.7 18:22:11 10° SSE 18:24:32 16° ESE 18:26:53 10° ENE
USA 306 3.1 18:20:19 10° W 18:24:34 68° NNW 18:28:51 10° ENE
Cosmos 1354 Rocket 4.2 18:19:32 10° NNW 18:24:41 51° ENE 18:29:46 10° SE
USA 186 3.2 18:25:07 11° ENE 18:25:42 12° ENE 18:26:41 10° NE
Cosmos 44 Rocket 3.7 18:20:47 10° NW 18:26:02 76° SW 18:31:14 10° SSE
FALCON 9 DEB 3.2 18:23:44 10° W 18:26:53 62° N 18:29:48 12° ENE
ERS-2 2.8 18:23:46 10° NNE 18:27:08 33° E 18:30:28 10° SSE
Cosmos 1844 Rocket 2.8 18:22:49 10° NNW 18:28:19 55° NE 18:33:47 10° SE
Cosmos 2084 Rocket 3.6 18:24:13 10° NW 18:28:32 84° SW 18:33:00 10° SE
FALCON 9 DEB 3.2 18:25:39 10° W 18:28:51 63° N 18:31:45 12° ENE
Okean-O 2.6 18:25:05 10° SSE 18:29:30 79° ENE 18:33:58 10° NNW
CSL-04 Rocket 3.8 18:25:35 10° SE 18:30:59 56° ENE 18:36:22 10° N
USA 308 3.1 18:27:30 10° W 18:31:47 67° N 18:35:51 11° ENE
CSL-04 Debris 4.2 18:26:58 10° SSE 18:32:19 61° ENE 18:37:44 10° N
Cosmos 1271 Rocket 3.8 18:29:12 10° NNW 18:32:50 49° W 18:36:28 10° S
Cosmos 1503 Rocket 4.0 18:29:46 10° NNW 18:34:58 68° ENE 18:40:07 10° SE
Cosmos 1666 4.1 18:32:33 10° SE 18:34:59 17° E 18:37:26 10° NE
H-2A R/B 3.6 18:32:12 10° N 18:36:00 38° WNW 18:39:48 10° SW
SKYMED 2 4.1 18:32:51 10° N 18:37:11 66° WNW 18:41:29 10° SSW
HJ-1C 3.3 18:34:06 10° SSE 18:37:23 63° ENE 18:40:41 10° N
MOS 1 Rocket 4.2 18:33:15 10° N 18:38:11 61° WNW 18:43:22 10° SSW
PSLV R/B 3.9 18:34:13 10° NNE 18:38:17 58° ESE 18:42:17 10° S
Cosmos 1844 3.9 18:34:24 10° NNW 18:40:08 57° NE 18:45:47 10° SE
CZ-4B R/B 2.1 18:39:21 10° N 18:42:19 51° WNW 18:45:18 10° SSW
Cosmos 1470 Rocket 3.7 18:38:27 10° S 18:42:48 54° E 18:47:10 10° NNE
Cosmos 2360 Rocket 2.7 18:40:00 10° S 18:45:09 38° ESE 18:50:22 10° NE
Cosmos 2278 Rocket 3.5 18:40:44 10° NNW 18:45:14 23° NE 18:48:36 14° E
Cosmos 1602 3.7 18:42:31 10° S 18:46:25 87° E 18:50:22 10° N
Ariane Rocket 3.9 18:42:08 10° ESE 18:46:30 30° ENE 18:50:54 10° N
Meteor 1-19 Rocket 4.4 18:41:51 10° NNW 18:47:52 85° WSW 18:53:40 10° S
Meteor 2-4 Rocket 3.8 18:46:36 10° N 18:52:25 67° ENE 18:58:18 10° SSE
Cosmos 1703 Rocket 3.8 18:48:26 10° N 18:52:44 48° ENE 18:56:58 10° SSE
DMSP B5D1-3 4.5 18:48:12 10° NNE 18:53:22 68° ESE 18:58:30 10° S
Cosmos 1500 3.3 18:49:52 10° S 18:53:28 50° E 18:57:06 10° NNE
Cosmos 2333 Rocket 3.3 18:51:18 10° SSE 18:55:33 22° ESE 18:59:49 10° NE
Cosmos 1689 Rocket 1.8 18:52:50 10° NNE 18:55:44 77° ESE 18:58:36 10° S
SL-08 RB Rocket 3.6 18:53:35 10° SSE 18:58:06 80° ENE 19:02:41 10° NNW
Meteor 2-12 Rocket 4.4 18:53:02 10° S 18:59:03 72° E 19:05:08 10° NNE
ERBS 2.6 18:56:42 10° WSW 18:59:59 63° NNW 19:02:19 18° NE
Cosmos 1980 Rocket 3.8 18:56:12 10° WSW 19:01:22 35° NW 19:06:35 10° NNE
Aureole 2 Rocket 3.0 19:01:08 10° NW 19:03:35 39° WSW 19:05:56 10° S
Cosmos 1943 Rocket 4.3 19:01:17 10° N 19:03:42 13° NNE 19:06:05 10° NE
Cosmos 1933 Rocket 3.5 18:59:26 10° S 19:03:42 59° E 19:08:03 10° NNE
Cosmos 2242 Rocket 3.5 19:06:17 10° N 19:10:51 80° E 19:15:18 10° SSE
Resurs 01 Rocket 2.9 19:12:41 22° ENE 19:13:09 22° ENE 19:16:32 10° N
Cosmos 2322 Rocket 2.2 19:09:21 10° SSW 19:15:00 84° WNW 19:20:40 10° NNE
Cosmos 1461 4.1 19:10:30 10° WSW 19:15:08 50° NW 19:19:44 10° NE
Abrixas rocket 2.1 19:13:38 10° WSW 19:16:01 41° S 19:16:07 41° S
Lacrosse 4 Rocket 3.6 19:13:54 10° SSE 19:14:29 12° SSE 19:14:29 12° SSE
FALCON 9 DEB 3.1 19:16:46 10° WNW 19:19:56 63° N 19:20:46 43° ENE
Helios 1A Rocket 3.8 19:16:36 10° S 19:20:32 49° W 19:24:29 10° NNW
YAOGAN 1 4.4 19:17:32 10° SSW 19:21:27 33° W 19:25:23 10° NNW
SJ-6B 2.8 19:22:30 19° SSE 19:25:20 65° ENE 19:29:22 10° N
COSMOS 2428 3.6 19:20:47 10° SSE 19:32:12 - NE 19:24:51 27° ESE
ASTEX 1 3.7 19:21:40 10° NNE 19:26:20 43° E 19:30:11 14° SSE
Cosmos 2154 Rocket 4.5 19:22:42 10° SSW 19:28:51 63° WNW 19:35:02 10° N
GP-B 3.2 19:25:01 10° S 19:29:26 76° W 19:33:55 10° N
Meteor 1-14 Rocket 4.3 19:24:28 10° SSW 19:30:02 77° WNW 19:35:36 10° N
MOS 1 4.3 19:25:33 15° SSE 19:30:17 64° ENE 19:35:55 10° N
Cosmos 2219 Rocket 2.7 19:27:19 10° S 19:32:19 35° ESE 19:37:23 10° NE
FALCON 9 DEB 2.9 19:29:12 10° WNW 19:32:23 69° N 19:32:42 62° NE
Meteor 1-11 Rocket 3.9 19:27:24 10° SSE 19:32:50 48° E 19:38:12 10° NNE
MetOp-A 4.1 19:29:02 10° SSE 19:34:24 86° WSW 19:39:48 10° NNW
OBJECT-B 0.6 19:36:26 69° ESE 19:36:35 71° ENE 19:39:49 10° N
Cosmos 1992 Rocket 4.4 19:31:52 10° SW 19:37:03 64° WNW 19:42:16 10° NNE
SJ 16-02 1.9 19:35:10 10° N 19:39:20 39° ENE 19:39:34 38° ENE
SL-16 R/B 3.1 19:34:16 10° SW 19:39:47 50° NW 19:45:20 10° NNE
Resurs 1-3 3.7 19:38:47 42° ESE 19:39:50 54° ENE 19:44:09 10° N
Okean 1-7 3.4 19:35:38 10° NNW 19:39:59 64° W 19:44:17 10° S
SeaSat 1 2.4 19:35:10 10° NNE 19:40:08 85° WNW 19:45:05 10° SW
Terra 4.1 19:42:57 10° NE 19:42:57 10° NE 19:42:59 10° NE
Cosmos 1066 Rocket 4.2 19:36:28 10° N 19:42:09 67° ENE 19:45:41 24° SSE
Meteor 1-13 Rocket 4.3 19:36:33 10° NNW 19:42:34 88° ENE 19:48:28 10° SSE
USA 234 3.4 19:39:54 26° ENE 19:43:29 51° SE 19:49:50 10° SW
Cosmos 1536 4.4 19:46:16 22° NNE 19:46:16 22° NNE 19:47:55 10° NNE
CZ-4 R/B 4.4 19:42:44 10° SW 19:45:04 15° W 19:47:26 10° NW
CZ-2C R/B 3.1 19:42:12 10° N 19:47:39 64° WNW 19:52:59 10° SSW
Cosmos 2369 Rocket 4.2 19:46:15 10° N 19:48:59 14° NNE 19:50:42 12° NE
H-2A R/B 4.5 19:45:17 10° SW 19:49:39 24° W 19:54:02 10° NW
USA 305 3.1 19:45:55 10° WNW 19:50:09 61° N 19:50:56 50° NE
BREEZE-M DEB (TANK) 2.4 19:47:50 10° W 19:50:27 68° S 19:51:09 54° SE
IRS-1A Rocket 4.2 19:46:43 16° SSE 19:51:16 89° WSW 19:56:52 10° NNW
Cosmos 2322 3.7 19:46:35 10° SSW 19:52:12 60° ESE 19:57:51 10° NE
DMSP B5D2-2 4.1 19:48:15 10° NNE 19:53:32 82° WNW 19:58:44 10° SSW
SL-4 R/B 2.0 19:51:00 10° W 19:54:12 51° SW 19:54:12 51° SW
USA 186 3.5 19:56:42 25° WNW 19:56:42 25° WNW 19:58:27 10° NW
Cosmos 1898 Rocket 4.3 19:53:06 10° NNW 19:57:50 34° NE 19:57:50 34° NE
Cosmos 1869 Rocket 3.4 19:53:37 10° S 19:57:59 89° ESE 20:02:26 10° N
Gbstr 26 Del rocket 3.4 19:54:54 10° W 19:59:38 86° N 20:00:59 53° E
SL-8 Rocket 4.0 19:54:17 10° S 20:00:33 83° W 20:06:47 10° N
USA 307 3.0 19:57:15 10° WNW 20:01:30 62° N 20:01:49 60° NNE
FALCON 9 DEB 4.0 19:59:39 10° WNW 20:01:56 44° WNW 20:01:56 44° WNW
ATLAS CENTAUR R/B 1.3 19:59:22 10° SW 20:02:57 63° NW 20:03:11 61° NNW
Cosmos 1378 3.2 20:00:32 10° NNW 20:03:54 70° NNW 20:03:54 70° NNW
USA 306 3.0 20:00:37 10° WNW 20:04:52 64° N 20:05:03 63° NNE
FALCON 9 DEB 4.1 20:01:42 10° WNW 20:03:59 43° WNW 20:03:59 43° WNW
Cosmos 1666 3.7 20:06:37 10° SSW 20:10:11 45° WNW 20:13:49 10° N
Cosmos 1844 Rocket 4.3 20:07:09 10° NW 20:11:58 30° WSW 20:16:44 10° SSW
USA 308 3.1 20:07:50 10° WNW 20:12:00 65° N 20:12:00 65° N
Cosmos 2366 rocket 4.1 20:09:16 10° SSW 20:15:36 80° W 20:22:01 10° N
NOSS 3-3 (A) 4.4 20:08:42 10° NW 20:16:01 78° NE 20:18:42 47° ESE
NOSS 3-3 (C) 4.4 20:08:48 10° NW 20:16:07 78° NE 20:18:47 47° ESE
Landsat 7 4.3 20:17:05 48° NNE 20:17:05 48° NNE 20:20:56 10° N
SL-08 R/B 4.4 20:11:58 20° S 20:16:38 70° E 20:23:05 10° NNE
Okean 3 4.2 20:14:03 10° NNW 20:18:10 50° W 20:19:31 36° SW
SPOT 3 Rocket 3.4 20:18:38 70° SE 20:19:13 82° ENE 20:24:29 10° NNW
ARIANE 5 R/B 4.1 20:21:37 26° NNE 20:21:37 26° NNE 20:23:57 10° N
Cosmos 2333 4.2 20:17:12 10° SSW 20:22:51 80° WNW 20:28:37 10° NNE
Cosmos 2221 Rocket 3.7 20:19:05 10° NNW 20:23:09 73° NW 20:23:09 73° NW
Ariane Rocket 3.8 20:22:15 22° SSW 20:25:17 49° W 20:30:15 10° NNW
SPOT 1/Viking Rocket 4.0 20:29:55 47° NNE 20:29:55 47° NNE 20:33:59 10° N
Cosmos 2360 Rocket 3.2 20:23:40 10° SW 20:29:05 46° NW 20:34:35 10° NNE
Cosmos 2278 Rocket 2.0 20:24:27 10° NNW 20:30:11 85° ENE 20:30:28 80° ESE
Cosmos 1727 Rocket 4.3 20:28:29 10° NNW 20:34:36 65° W 20:37:44 30° SSW
Cosmos 990 Rocket 4.2 20:29:39 10° NNW 20:34:05 59° NNE 20:34:05 59° NNE
Cosmos 2333 Rocket 2.3 20:33:32 10° SW 20:39:13 76° WNW 20:45:00 10° NNE
Cosmos 1821 Rocket 3.8 20:41:55 75° ENE 20:41:55 75° ENE 20:47:49 10° NNE
Cosmos 1000 Rocket 4.4 20:41:35 10° N 20:47:53 84° W 20:48:32 73° SSW
Resurs 01 Rocket 2.6 20:50:14 45° WNW 20:50:14 45° WNW 20:53:40 10° NNW
Cosmos 1943 Rocket 3.4 20:44:19 10° NNW 20:48:24 30° NNE 20:48:24 30° NNE
MetOp-B 4.2 20:50:11 73° NW 20:50:11 73° NW 20:55:06 10° NNW
Cosmos 2322 Rocket 4.4 20:55:30 10° W 20:59:54 23° NW 21:04:19 10° NNE
Cosmos 2123 Rocket 4.1 20:54:43 10° N 21:00:10 67° NNE 21:00:10 67° NNE
COSMOS 2428 3.7 21:03:44 10° SW 21:14:01 16° NNE 21:15:03 10° NNE
Cosmos 2219 Rocket 2.9 21:10:43 10° SW 21:16:08 49° NW 21:21:37 10° NNE
SJ 16-02 3.4 21:14:00 10° NW 21:16:35 25° WNW 21:16:35 25° WNW
Terra 3.9 21:21:50 21° N 21:21:50 21° N 21:23:24 10° N
USA 234 3.4 21:27:15 71° WNW 21:27:15 71° WNW 21:33:16 10° WSW
USA 281 3.9 21:34:30 46° N 21:34:30 46° N 21:39:25 10° NNW
Cosmos 2369 Rocket 3.8 21:29:32 10° NNW 21:32:29 27° N 21:32:29 27° N
Cosmos 2278 Rocket 4.4 22:09:42 10° WNW 22:12:20 18° W 22:12:20 18° W
Cosmos 2333 Rocket 4.4 22:20:08 10° W 22:24:30 22° NW 22:28:53 10° NNE
Cosmos 1943 Rocket 4.3 22:27:56 10° NW 22:29:55 22° NW 22:29:55 22° NW
